TimeCDT,TemperatureF,Dew PointF,Humidity,Sea Level PressureIn,VisibilityMPH,Wind Direction,Wind SpeedMPH,Gust SpeedMPH,PrecipitationIn,Events,Conditions,WindDirDegrees,DateUTC
12:56 AM,52.0,41.0,66,29.77,-9999.0,NW,4.6,-,N/A,,Unknown,320,2013-05-15 05:56:00
1:56 AM,52.0,41.0,66,29.79,-9999.0,WNW,6.9,-,N/A,,Unknown,290,2013-05-15 06:56:00
2:56 AM,54.0,42.1,64,29.80,-9999.0,West,6.9,-,N/A,,Unknown,260,2013-05-15 07:56:00
3:56 AM,52.0,43.0,71,29.79,-9999.0,WSW,6.9,-,N/A,,Unknown,250,2013-05-15 08:56:00
4:56 AM,50.0,43.0,77,29.83,-9999.0,SW,8.1,-,N/A,,Unknown,230,2013-05-15 09:56:00
5:56 AM,61.0,43.0,52,29.84,-9999.0,West,13.8,-,N/A,,Unknown,270,2013-05-15 10:56:00
6:56 AM,60.1,44.1,55,29.83,-9999.0,West,6.9,-,N/A,,Unknown,270,2013-05-15 11:56:00
7:56 AM,64.9,44.1,47,29.84,-9999.0,Calm,Calm,-,N/A,,Unknown,0,2013-05-15 12:56:00
8:56 AM,73.0,41.0,31,29.84,-9999.0,WNW,13.8,-,N/A,,Unknown,300,2013-05-15 13:56:00
9:56 AM,70.0,46.0,42,29.86,-9999.0,West,18.4,27.6,N/A,,Unknown,270,2013-05-15 14:56:00
10:56 AM,73.9,46.0,37,29.85,-9999.0,West,16.1,-,N/A,,Unknown,280,2013-05-15 15:56:00
11:56 AM,75.9,46.0,35,29.85,-9999.0,WNW,13.8,-,N/A,,Unknown,290,2013-05-15 16:56:00
12:56 PM,75.9,44.1,32,29.84,-9999.0,West,16.1,23.0,N/A,,Unknown,270,2013-05-15 17:56:00
1:56 PM,77.0,43.0,30,29.83,-9999.0,West,17.3,25.3,N/A,,Unknown,280,2013-05-15 18:56:00
2:56 PM,78.1,44.1,30,29.82,-9999.0,West,17.3,26.5,N/A,,Unknown,280,2013-05-15 19:56:00
3:56 PM,77.0,42.1,29,29.80,-9999.0,West,15.0,25.3,N/A,,Unknown,280,2013-05-15 20:56:00
4:56 PM,78.1,37.9,24,29.79,-9999.0,WNW,13.8,24.2,N/A,,Unknown,290,2013-05-15 21:56:00
5:56 PM,80.1,37.9,22,29.76,-9999.0,West,15.0,23.0,N/A,,Unknown,270,2013-05-15 22:56:00
6:56 PM,78.1,39.9,25,29.76,-9999.0,West,12.7,-,N/A,,Unknown,270,2013-05-15 23:56:00
7:56 PM,75.0,39.0,27,29.76,-9999.0,West,13.8,-,N/A,,Unknown,270,2013-05-16 00:56:00
8:56 PM,70.0,39.0,32,29.76,-9999.0,West,10.4,-,N/A,,Unknown,260,2013-05-16 01:56:00
9:56 PM,64.9,39.9,40,29.79,-9999.0,NW,10.4,-,N/A,,Unknown,310,2013-05-16 02:56:00
10:56 PM,62.1,39.0,43,29.81,-9999.0,NW,6.9,-,N/A,,Unknown,310,2013-05-16 03:56:00
11:56 PM,57.9,37.0,46,29.83,-9999.0,NNW,3.5,-,N/A,,Unknown,330,2013-05-16 04:56:00